Location: Brotuna
(46.2000°N, 22.6000°E)
Time: 09:49:24
(UTC+00:00)

Meteor 2-12 Rocket - Pass Details

Date: 09 April 2020
Orbit: 935 x 958 km, 82.5° (Epoch: 25 May)

Event Time Altitude Azimuth Distance (km) Brightness Sun altitude
Rises 19:02:34 0° 353° (N) 3,627 8.1 -18.7°
Reaches altitude 10° 19:05:08 10° 358° (N) 2,674 7.3 -19.1°
Maximum altitude 19:11:09 59° 77° (ENE) 1,083 4.5 -19.9°
Enters shadow 19:13:30 36° 139° (SE) 1,444 4.9 -20.3°
